Regional Weather Roundup
Issued by NWS

Home | Current Version | Previous Version | Text Only | Print | Product List | Glossary Off
Versions: 1 2 3 4 5 6 7 8 9 10 11 12 13 14 15 16 17 18 19 20 21 22 23 24 25 26 27 28 29 30 31 32 33 34 35 36 37 38 39 40 41 42 43 44 45 46 47 48 49 50

000
ASUS44 KMEG 250810
RWRTN
TENNESSEE HOURLY STATE WEATHER ROUNDUP
NATIONAL WEATHER SERVICE MEMPHIS TN
300 AM CDT SAT APR 25 2015

TNZ002-004-019-021-049-052-054-088>092-250900-
WEST TENNESSEE

CITY           SKY/WX    TMP DP  RH WIND       PRES   REMARKS
MEMPHIS INTL   CLOUDY    62  59  90 S13G21    29.62F
NWS MEMPHIS      N/A     61 N/A N/A MISG        N/A
JACKSON        LGT RAIN  59  56  89 S7        29.71R
DYERSBURG      CLOUDY    57  45  62 SE16G22   29.61F
UNION CITY     PTCLDY    55  32  41 S8        29.70F
PARIS          CLEAR     54  52  94 S9        29.73F
LEXINGTON      MOCLDY    55  55 100 S16       29.68F
SAVANNAH       CLOUDY    55  32  41 S6        29.82F
$$

TNZ008-025-027-028-033-062-065-066-250900-
NORTH MIDDLE TENNESSEE

CITY           SKY/WX    TMP DP  RH WIND       PRES   REMARKS
NASHVILLE      CLOUDY    58  55  90 SW7       29.80F
CLARKSVILLE    CLOUDY    58  55  90 W3        29.77R
SMYRNA         CLOUDY    56  54  93 SE7       29.80F
COOKEVILLE     MOCLDY    54  52  94 S6        29.81F
CROSSVILLE     CLOUDY    54  46  74 VRB5      29.85F
$$

TNZ061-075-076-078-094-096-097-250900-
SOUTH MIDDLE TENNESSEE

CITY           SKY/WX    TMP DP  RH WIND       PRES   REMARKS
FAYETTEVILLE     N/A     52  52 100 NE5       29.83F
TULLAHOMA      MOCLDY    54  52  94 CALM      29.86F
WINCHESTER     CLOUDY    54  52  94 SE8       29.85F
MCMINNVILLE    CLOUDY    55  55 100 S9        29.83F
COLUMBIA       CLOUDY    55  32  41 S12       29.79F
SHELBYVILLE    CLOUDY    55  55 100 SE9       29.84F
$$

TNZ017-018-042-046-047-250900-
NORTHEAST TENNESSEE

CITY           SKY/WX    TMP DP  RH WIND       PRES   REMARKS
TRI CITIES     CLOUDY    52  39  61 CALM      29.87F
ELIZABETHTON   CLOUDY    50  34  53 CALM      29.87F
$$

TNZ012-013-036-069-073-074-250900-
CENTRAL EAST TENNESSEE

CITY           SKY/WX    TMP DP  RH WIND       PRES   REMARKS
KNOXVILLE      CLOUDY    55  44  66 CALM      29.86F
OAK RIDGE      LGT RAIN  55  45  68 CALM      29.88F
GATLINBURG     MOSUNNY   50  43  76 CALM      29.86F
MORRISTOWN     PTSUNNY   52  45  76 SW3       29.87F
$$

TNZ083-085-099-250900-
SOUTHEAST TENNESSEE

CITY           SKY/WX    TMP DP  RH WIND       PRES   REMARKS
CHATTANOOGA    LGT RAIN  55  51  86 CALM      29.88F
$$

SKY/WX REPORTED AS FAIR MEANS FEW OR NO CLOUDS BELOW
12 THOUSAND FEET.



USA.gov is the U.S. government's official web portal to all federal, state and local government web resources and services.